63.5°F
Current conditions from King Hill
Updated every 5 minutes
 
  Tuesday July 29, 2014

Station Historical Data
Daily Summary for April 21, 2012 Units:  Metric    English   Both
« Previous Day
Next Day »
Daily Weekly Monthly Yearly Custom
  High: Low: Average:
Temperature: 15.3 °C 2.2 °C 8.9 °C
Dew Point: 10.2 °C 1.2 °C 5.8 °C
Humidity: 93% 68% 82%
Wind Speed: 19.3km/h 1.6km/h 6.9km/h
Wind Gust: 40.2km/h - -
Wind- - SSE
Pressure: 1011.1 hPa 1003.3 hPa -
Precipitation: 8.9 mm    
Historical Graphs
 
 
Tabular Data for April 21, 2012
Time Temperature Dew Point Pressure Wind Wind Speed Wind Gust Humidity Daily Rainfall
00:04 13.6 °C 8.4 °C 1005 hPa SW 8 km/h 27.4 km/h 71% 0 mm
00:09 13.9 °C 8.8 °C 1005 hPa SSW 14.5 km/h 27.4 km/h 71% 0 mm
00:14 14.2 °C 8.8 °C 1005 hPa SSW 9.7 km/h 27.4 km/h 70% 0 mm
00:19 14.2 °C 8.8 °C 1005 hPa SW 12.9 km/h 27.4 km/h 70% 0 mm
00:24 14.2 °C 8.8 °C 1005 hPa SW 6.4 km/h 25.7 km/h 70% 0 mm
00:29 14.2 °C 8.8 °C 1005 hPa SSW 8 km/h 22.5 km/h 70% 0 mm
00:34 14.1 °C 8.7 °C 1005 hPa SW 8 km/h 20.9 km/h 70% 0 mm
00:44 13.9 °C 8.7 °C 1005 hPa SW 6.4 km/h 16.1 km/h 71% 0 mm
00:49 13.9 °C 9 °C 1005 hPa SSW 12.9 km/h 30.6 km/h 72% 0 mm
00:54 14.7 °C 9.4 °C 1004.6 hPa SSW 19.3 km/h 32.2 km/h 71% 0 mm
00:59 15 °C 9.6 °C 1004.6 hPa SSW 14.5 km/h 32.2 km/h 70% 0 mm
01:04 15.2 °C 9.5 °C 1004.6 hPa SSW 9.7 km/h 40.2 km/h 69% 0 mm
01:09 15.3 °C 9.6 °C 1004.6 hPa SSW 16.1 km/h 40.2 km/h 69% 0 mm
01:14 15.2 °C 9.6 °C 1004.6 hPa SSW 11.3 km/h 38.6 km/h 69% 0 mm
01:19 15.3 °C 9.7 °C 1004.6 hPa SSW 16.1 km/h 30.6 km/h 69% 0 mm
01:24 15.3 °C 9.6 °C 1004.6 hPa South 11.3 km/h 30.6 km/h 69% 0 mm
01:29 15.2 °C 9.6 °C 1004.6 hPa SW 8 km/h 25.7 km/h 69% 0 mm
01:34 15.3 °C 9.6 °C 1004.6 hPa SSW 19.3 km/h 27.4 km/h 69% 0 mm
01:39 15.3 °C 9.6 °C 1004.6 hPa SSW 14.5 km/h 32.2 km/h 69% 0 mm
01:44 15.2 °C 9.5 °C 1004.6 hPa SSW 9.7 km/h 32.2 km/h 69% 0 mm
01:49 15.1 °C 9.4 °C 1004.3 hPa SSW 9.7 km/h 29 km/h 69% 0 mm
01:54 15.2 °C 9.5 °C 1004.3 hPa SSW 12.9 km/h 29 km/h 69% 0 mm
01:59 15 °C 9.4 °C 1004.3 hPa SSW 9.7 km/h 29 km/h 69% 0 mm
02:04 15 °C 9.4 °C 1004.3 hPa SSW 16.1 km/h 30.6 km/h 69% 0 mm
02:09 15 °C 9.2 °C 1004.3 hPa SSW 16.1 km/h 33.8 km/h 68% 0 mm
02:14 15 °C 9.2 °C 1004.3 hPa SSW 14.5 km/h 33.8 km/h 68% 0 mm
02:19 15 °C 9.2 °C 1004.3 hPa SSW 14.5 km/h 38.6 km/h 68% 0 mm
02:24 15 °C 9.2 °C 1004.3 hPa SSW 17.7 km/h 38.6 km/h 68% 0 mm
02:29 14.9 °C 9.1 °C 1004.3 hPa SSW 11.3 km/h 37 km/h 68% 0 mm
02:34 14.8 °C 9.2 °C 1004.3 hPa SSW 12.9 km/h 32.2 km/h 69% 0 mm
02:39 14.7 °C 9.1 °C 1004.3 hPa SW 16.1 km/h 29 km/h 69% 0 mm
02:44 14.6 °C 8.9 °C 1004.3 hPa SSW 11.3 km/h 29 km/h 69% 0 mm
02:49 14.6 °C 8.9 °C 1004.3 hPa SSW 14.5 km/h 32.2 km/h 69% 0 mm
02:54 14.6 °C 8.7 °C 1003.9 hPa SW 11.3 km/h 32.2 km/h 68% 0 mm
02:59 14.4 °C 8.8 °C 1003.9 hPa SSW 14.5 km/h 32.2 km/h 69% 0 mm
03:04 14.3 °C 8.7 °C 1003.9 hPa SSW 12.9 km/h 29 km/h 69% 0 mm
03:09 14.3 °C 8.5 °C 1003.9 hPa SSW 12.9 km/h 30.6 km/h 68% 0 mm
03:14 14.3 °C 8.7 °C 1003.9 hPa SSW 14.5 km/h 30.6 km/h 69% 0 mm
03:19 14.3 °C 8.4 °C 1003.9 hPa SSW 12.9 km/h 30.6 km/h 68% 0 mm
03:24 14.2 °C 8.6 °C 1003.9 hPa SSW 14.5 km/h 32.2 km/h 69% 0 mm
03:29 14.2 °C 8.4 °C 1003.6 hPa SSW 12.9 km/h 32.2 km/h 68% 0 mm
03:34 14.2 °C 8.4 °C 1003.6 hPa SSW 17.7 km/h 30.6 km/h 68% 0 mm
03:39 14.2 °C 8.3 °C 1003.6 hPa SSW 16.1 km/h 33.8 km/h 68% 0 mm
03:44 14.2 °C 8.3 °C 1003.6 hPa SSW 19.3 km/h 35.4 km/h 68% 0 mm
03:49 14.2 °C 8.4 °C 1003.3 hPa SSW 14.5 km/h 38.6 km/h 68% 0 mm
03:54 14.2 °C 8.6 °C 1003.6 hPa SSW 17.7 km/h 38.6 km/h 69% 0 mm
03:59 14.1 °C 8.5 °C 1003.6 hPa SSW 14.5 km/h 35.4 km/h 69% 0 mm
04:04 14.1 °C 8.4 °C 1003.6 hPa SSW 17.7 km/h 37 km/h 69% 0 mm
04:09 14.1 °C 8.4 °C 1003.9 hPa SSW 11.3 km/h 37 km/h 69% 0 mm
04:14 13.9 °C 8.6 °C 1003.9 hPa SSW 11.3 km/h 29 km/h 70% 0 mm
04:19 13.8 °C 8.4 °C 1004.3 hPa SW 14.5 km/h 29 km/h 70% 0 mm
04:24 13.8 °C 8.4 °C 1003.9 hPa SSW 11.3 km/h 27.4 km/h 70% 0 mm
04:29 13.8 °C 8.4 °C 1003.9 hPa SSW 11.3 km/h 25.7 km/h 70% 0 mm
04:34 13.7 °C 8.6 °C 1003.6 hPa SSW 8 km/h 24.1 km/h 71% 0 mm
04:39 13.8 °C 8.6 °C 1003.6 hPa SSW 17.7 km/h 29 km/h 71% 0 mm
04:44 13.7 °C 8.6 °C 1003.6 hPa SSW 11.3 km/h 29 km/h 71% 0 mm
04:50 13.7 °C 8.7 °C 1003.6 hPa SSW 9.7 km/h 22.5 km/h 72% 0 mm
05:00 13.6 °C 8.8 °C 1003.9 hPa SSW 11.3 km/h 22.5 km/h 73% 0 mm
05:09 13.4 °C 8.7 °C 1003.9 hPa SSW 12.9 km/h 22.5 km/h 73% 0 mm
05:14 13.4 °C 8.9 °C 1003.9 hPa SSW 12.9 km/h 25.7 km/h 74% 0 mm
05:19 13.4 °C 8.8 °C 1003.9 hPa SSW 12.9 km/h 25.7 km/h 74% 0 mm
05:24 13.4 °C 8.9 °C 1003.9 hPa SW 11.3 km/h 24.1 km/h 74% 0 mm
05:29 13.3 °C 8.8 °C 1003.9 hPa SSW 11.3 km/h 22.5 km/h 74% 0 mm
05:35 13.3 °C 9 °C 1003.9 hPa SSW 11.3 km/h 27.4 km/h 75% 0 mm
05:44 13.2 °C 8.9 °C 1003.9 hPa SSW 9.7 km/h 24.1 km/h 75% 0 mm
05:49 13.2 °C 9.1 °C 1003.9 hPa SSW 8 km/h 22.5 km/h 76% 0 mm
05:54 13.2 °C 9.1 °C 1003.9 hPa SSW 9.7 km/h 22.5 km/h 76% 0 mm
05:59 13.1 °C 9 °C 1003.9 hPa SSW 11.3 km/h 22.5 km/h 76% 0 mm
06:04 13.1 °C 9.2 °C 1004.3 hPa SSW 8 km/h 20.9 km/h 77% 0 mm
06:09 13.1 °C 9.2 °C 1004.3 hPa SSW 9.7 km/h 22.5 km/h 77% 0 mm
06:14 13.1 °C 9.1 °C 1004.3 hPa SSW 11.3 km/h 22.5 km/h 77% 0 mm
06:19 13.1 °C 9.2 °C 1004.3 hPa SSW 12.9 km/h 24.1 km/h 77% 0 mm
06:24 13.1 °C 9.2 °C 1004.3 hPa SW 8 km/h 24.1 km/h 77% 0 mm
06:30 13 °C 9.1 °C 1004.3 hPa SW 3.2 km/h 19.3 km/h 77% 0 mm
06:39 12.8 °C 9.1 °C 1004.3 hPa SSW 6.4 km/h 16.1 km/h 78% 0 mm
06:44 12.9 °C 9.2 °C 1004.3 hPa SW 6.4 km/h 16.1 km/h 78% 0 mm
06:49 12.8 °C 9.1 °C 1004.3 hPa SW 8 km/h 16.1 km/h 78% 0 mm
06:54 12.8 °C 9.3 °C 1004.3 hPa SSW 8 km/h 12.9 km/h 79% 0 mm
06:59 12.9 °C 9.4 °C 1004.3 hPa SW 9.7 km/h 16.1 km/h 79% 0 mm
07:04 13.1 °C 9.6 °C 1004.3 hPa SSW 8 km/h 17.7 km/h 79% 0 mm
07:09 13.3 °C 9.5 °C 1004.3 hPa SW 11.3 km/h 20.9 km/h 78% 0 mm
07:14 13.4 °C 9.6 °C 1004.3 hPa SW 11.3 km/h 20.9 km/h 78% 0 mm
07:19 13.7 °C 9.9 °C 1004.3 hPa SW 12.9 km/h 22.5 km/h 78% 0 mm
07:24 13.9 °C 10 °C 1004.3 hPa SW 8 km/h 22.5 km/h 77% 0 mm
07:29 14.1 °C 9.9 °C 1004.6 hPa SW 11.3 km/h 22.5 km/h 76% 0 mm
07:34 14.2 °C 10 °C 1004.6 hPa SW 11.3 km/h 22.5 km/h 76% 0 mm
07:39 14.3 °C 10.1 °C 1004.6 hPa SSW 8 km/h 20.9 km/h 76% 0 mm
07:45 14.4 °C 10.2 °C 1004.6 hPa SW 6.4 km/h 20.9 km/h 76% 0 mm
07:54 14.3 °C 9.9 °C 1004.6 hPa SW 9.7 km/h 20.9 km/h 75% 0 mm
07:59 14.2 °C 9.8 °C 1004.6 hPa SSW 9.7 km/h 20.9 km/h 75% 0 mm
08:04 14.2 °C 9.8 °C 1004.6 hPa SW 4.8 km/h 17.7 km/h 75% 0 mm
08:09 14.2 °C 9.8 °C 1004.6 hPa SW 8 km/h 16.1 km/h 75% 0 mm
08:14 14.1 °C 9.7 °C 1004.6 hPa SW 11.3 km/h 17.7 km/h 75% 0 mm
08:19 14 °C 9.7 °C 1004.6 hPa SW 4.8 km/h 19.3 km/h 75% 0 mm
08:24 14.1 °C 9.7 °C 1004.6 hPa SW 8 km/h 19.3 km/h 75% 0 mm
08:34 14.1 °C 9.6 °C 1004.6 hPa SW 3.2 km/h 14.5 km/h 74% 0 mm
08:44 13.7 °C 8.8 °C 1004.6 hPa WNW 8 km/h 11.3 km/h 72% 0 mm
08:49 13.3 °C 8.2 °C 1004.6 hPa Calm   12.9 km/h 71% 0 mm
08:54 13 °C 7.4 °C 1004.6 hPa West 1.6 km/h 12.9 km/h 69% 0 mm
08:59 12.3 °C 6.9 °C 1004.6 hPa Calm   6.4 km/h 70% 0 mm
09:04 11.9 °C 7 °C 1004.6 hPa Calm   6.4 km/h 72% 0 mm
09:09 11.7 °C 7.1 °C 1004.6 hPa Calm   1.6 km/h 73% 0 mm
09:19 10.9 °C 6.2 °C 1005 hPa NW 8 km/h 12.9 km/h 73% 0 mm
09:24 9.9 °C 5.7 °C 1005 hPa NW 6.4 km/h 17.7 km/h 75% 0 mm
09:34 8.9 °C 5.5 °C 1005 hPa Calm   11.3 km/h 79% 0 mm
09:40 8.9 °C 5.6 °C 1005 hPa WNW 3.2 km/h 11.3 km/h 80% 0 mm
09:49 9.2 °C 6.1 °C 1005.3 hPa NW 3.2 km/h 8 km/h 81% 0 mm
09:54 9.3 °C 6 °C 1005.3 hPa Calm   8 km/h 80% 0 mm
09:59 9.2 °C 5.8 °C 1005.3 hPa NW 1.6 km/h 6.4 km/h 79% 0 mm
10:04 9.3 °C 5.8 °C 1005.3 hPa NW 4.8 km/h 9.7 km/h 79% 0 mm
10:09 9.3 °C 5.9 °C 1005.3 hPa NW 1.6 km/h 9.7 km/h 79% 0 mm
10:14 9.4 °C 6 °C 1005.3 hPa NW 1.6 km/h 8 km/h 79% 0 mm
10:19 9.6 °C 6.1 °C 1005.3 hPa Calm   8 km/h 79% 0 mm
10:24 9.9 °C 6.4 °C 1005.3 hPa Calm   11.3 km/h 79% 0 mm
10:29 10 °C 6.2 °C 1005.3 hPa NW 4.8 km/h 11.3 km/h 77% 0 mm
10:34 9.8 °C 6 °C 1005.3 hPa WNW 1.6 km/h 9.7 km/h 77% 0 mm
10:44 9.8 °C 5.9 °C 1005.3 hPa NW 1.6 km/h 9.7 km/h 77% 0 mm
10:49 9.8 °C 5.9 °C 1005.6 hPa NW 1.6 km/h 8 km/h 77% 0 mm
10:54 9.9 °C 6.1 °C 1005.3 hPa NE 1.6 km/h 8 km/h 77% 0 mm
10:59 10.2 °C 6.6 °C 1005.3 hPa NNE 3.2 km/h 11.3 km/h 78% 0 mm
11:04 10.6 °C 6.6 °C 1005.3 hPa NNW 1.6 km/h 11.3 km/h 76% 0 mm
11:09 10.7 °C 6.2 °C 1005.6 hPa NNE 1.6 km/h 11.3 km/h 74% 0 mm
11:15 10.6 °C 6.1 °C 1005.6 hPa NNE 1.6 km/h 11.3 km/h 74% 0 mm
11:25 10.1 °C 5.6 °C 1005.6 hPa NW 1.6 km/h 11.3 km/h 74% 0 mm
11:34 9.1 °C 5.3 °C 1005.6 hPa NNW 3.2 km/h 14.5 km/h 77% 0 mm
11:44 8.7 °C 5.1 °C 1006.3 hPa NNW 1.6 km/h 12.9 km/h 78% 0 mm
11:49 8.3 °C 4.7 °C 1006 hPa NNW 3.2 km/h 12.9 km/h 78% 0 mm
11:54 7.9 °C 4.5 °C 1006 hPa NW 3.2 km/h 11.3 km/h 79% 0 mm
11:59 7.7 °C 4.4 °C 1006.3 hPa NW 4.8 km/h 12.9 km/h 80% 0 mm
12:04 7.5 °C 4.4 °C 1006.3 hPa Calm   12.9 km/h 81% 0 mm
12:09 7.2 °C 4.3 °C 1006.3 hPa NNW 1.6 km/h 11.3 km/h 82% 0 mm
12:14 7.1 °C 4.2 °C 1006.3 hPa North 1.6 km/h 12.9 km/h 82% 0 mm
12:19 6.8 °C 4.1 °C 1006.3 hPa NNE 1.6 km/h 14.5 km/h 83% 0 mm
12:24 6.7 °C 4.2 °C 1006.3 hPa North 1.6 km/h 14.5 km/h 84% 0 mm
12:30 6.7 °C 4.2 °C 1006.3 hPa NNE 1.6 km/h 16.1 km/h 84% 0 mm
12:39 6.6 °C 4.1 °C 1006.3 hPa North 1.6 km/h 9.7 km/h 84% 0 mm
12:44 6.6 °C 4.2 °C 1006.7 hPa NNW 3.2 km/h 9.7 km/h 85% 0 mm
12:54 6.4 °C 4.1 °C 1006.7 hPa North 3.2 km/h 11.3 km/h 85% 0 mm
13:00 6.3 °C 4 °C 1006.7 hPa North 1.6 km/h 11.3 km/h 85% 0 mm
13:10 6.3 °C 4.2 °C 1007 hPa Calm   8 km/h 86% 0 mm
13:19 6.2 °C 4.1 °C 1007 hPa Calm   12.9 km/h 86% 0 mm
13:24 6.2 °C 4.1 °C 1007 hPa Calm   12.9 km/h 86% 0 mm
13:29 6.2 °C 4.1 °C 1007.3 hPa NNE 1.6 km/h 9.7 km/h 86% 0 mm
13:35 6.2 °C 4 °C 1007.3 hPa Calm   9.7 km/h 86% 0 mm
13:44 6.2 °C 4.2 °C 1007.3 hPa NW 3.2 km/h 12.9 km/h 87% 0.3 mm
13:49 6.1 °C 4.1 °C 1007.3 hPa NW 1.6 km/h 12.9 km/h 87% 0.5 mm
13:54 6.1 °C 4.2 °C 1007.3 hPa Calm   8 km/h 88% 0.5 mm
14:00 6.1 °C 4.2 °C 1007.3 hPa NNE 3.2 km/h 9.7 km/h 88% 0.8 mm
14:09 5.9 °C 4.1 °C 1007.3 hPa Calm   9.7 km/h 88% 1 mm
14:14 5.9 °C 4.1 °C 1007.3 hPa Calm   6.4 km/h 88% 1 mm
14:19 5.9 °C 4.2 °C 1007.3 hPa NNE 1.6 km/h 9.7 km/h 89% 1.3 mm
14:24 5.8 °C 4.2 °C 1007.3 hPa Calm   9.7 km/h 89% 1.5 mm
14:29 5.8 °C 4.2 °C 1007.7 hPa NNE 1.6 km/h 8 km/h 89% 1.5 mm
14:34 5.8 °C 4.1 °C 1007.7 hPa Calm   6.4 km/h 89% 1.5 mm
14:39 5.7 °C 4 °C 1007.7 hPa NNE 3.2 km/h 11.3 km/h 89% 1.5 mm
14:44 5.6 °C 3.9 °C 1007.7 hPa NNE 1.6 km/h 11.3 km/h 89% 1.5 mm
14:54 5.6 °C 4.1 °C 1007.7 hPa Calm   6.4 km/h 90% 1.5 mm
15:00 5.7 °C 4.2 °C 1007.7 hPa NW 1.6 km/h 4.8 km/h 90% 1.5 mm
15:09 5.7 °C 4.2 °C 1007.7 hPa Calm   9.7 km/h 90% 1.8 mm
15:14 5.7 °C 4.2 °C 1007.7 hPa NW 1.6 km/h 9.7 km/h 90% 2 mm
15:19 5.7 °C 4.2 °C 1007.7 hPa Calm   6.4 km/h 90% 2 mm
15:24 5.7 °C 4.2 °C 1007.7 hPa Calm   6.4 km/h 90% 2 mm
15:29 5.6 °C 4.1 °C 1007.7 hPa Calm   11.3 km/h 90% 2.3 mm
15:35 5.5 °C 4 °C 1007.7 hPa North 1.6 km/h 14.5 km/h 90% 2.3 mm
15:44 5.5 °C 4 °C 1007.7 hPa Calm   12.9 km/h 90% 2.5 mm
15:54 5.3 °C 3.8 °C 1008 hPa Calm   16.1 km/h 90% 2.5 mm
15:59 5.3 °C 3.8 °C 1007.7 hPa NNE 1.6 km/h 6.4 km/h 90% 2.5 mm
16:04 5.3 °C 3.8 °C 1008 hPa NNE 3.2 km/h 14.5 km/h 90% 3 mm
16:14 5.2 °C 3.7 °C 1008 hPa North 3.2 km/h 12.9 km/h 90% 3 mm
16:19 5.1 °C 3.8 °C 1008.4 hPa North 3.2 km/h 14.5 km/h 91% 3 mm
16:24 5.1 °C 3.6 °C 1008.4 hPa North 1.6 km/h 14.5 km/h 90% 3.3 mm
16:29 5.1 °C 3.6 °C 1008.4 hPa NNE 1.6 km/h 11.3 km/h 90% 3.6 mm
16:34 5.1 °C 3.6 °C 1008 hPa Calm   8 km/h 90% 3.6 mm
16:39 5.1 °C 3.8 °C 1007.7 hPa NNE 3.2 km/h 11.3 km/h 91% 4.1 mm
16:45 5.1 °C 3.8 °C 1008 hPa North 3.2 km/h 11.3 km/h 91% 4.1 mm
16:54 5.1 °C 3.7 °C 1008.4 hPa ENE 1.6 km/h 12.9 km/h 91% 4.1 mm
16:59 5.1 °C 3.7 °C 1008 hPa NNE 1.6 km/h 14.5 km/h 91% 4.1 mm
17:04 5 °C 3.7 °C 1008 hPa NNE 8 km/h 14.5 km/h 91% 4.1 mm
17:09 4.9 °C 3.6 °C 1008 hPa NE 1.6 km/h 20.9 km/h 91% 4.1 mm
17:14 4.8 °C 3.5 °C 1008.4 hPa NNE 3.2 km/h 20.9 km/h 91% 4.1 mm
17:19 4.8 °C 3.5 °C 1008.4 hPa NNE 4.8 km/h 14.5 km/h 91% 4.1 mm
17:24 4.8 °C 3.4 °C 1008.4 hPa North 3.2 km/h 17.7 km/h 91% 4.1 mm
17:29 4.7 °C 3.4 °C 1008.4 hPa NNE 1.6 km/h 17.7 km/h 91% 4.1 mm
17:34 4.7 °C 3.4 °C 1008.4 hPa NNE 4.8 km/h 12.9 km/h 91% 4.1 mm
17:39 4.7 °C 3.4 °C 1008.4 hPa North 3.2 km/h 17.7 km/h 91% 4.1 mm
17:44 4.7 °C 3.3 °C 1008.4 hPa NE 3.2 km/h 17.7 km/h 91% 4.1 mm
17:49 4.6 °C 3.3 °C 1008.4 hPa North 3.2 km/h 16.1 km/h 91% 4.1 mm
17:54 4.6 °C 3.2 °C 1008.7 hPa North 3.2 km/h 16.1 km/h 91% 4.1 mm
17:59 4.6 °C 3.2 °C 1008.4 hPa North 4.8 km/h 12.9 km/h 91% 4.1 mm
18:04 4.5 °C 3.2 °C 1008.7 hPa NNE 8 km/h 17.7 km/h 91% 4.3 mm
18:09 4.4 °C 3.1 °C 1008.7 hPa North 3.2 km/h 17.7 km/h 91% 4.3 mm
18:14 4.5 °C 3.2 °C 1008.7 hPa NNE 1.6 km/h 12.9 km/h 91% 4.3 mm
18:19 4.4 °C 3.1 °C 1009 hPa Calm   11.3 km/h 91% 4.3 mm
18:24 4.4 °C 3.1 °C 1008.7 hPa North 6.4 km/h 14.5 km/h 91% 4.3 mm
18:29 4.3 °C 3 °C 1008.7 hPa NNE 1.6 km/h 14.5 km/h 91% 4.3 mm
18:34 4.3 °C 2.9 °C 1009 hPa NNE 3.2 km/h 14.5 km/h 91% 4.3 mm
18:39 4.2 °C 2.9 °C 1009 hPa North 1.6 km/h 14.5 km/h 91% 4.3 mm
18:44 4.3 °C 2.9 °C 1009 hPa NNE 1.6 km/h 9.7 km/h 91% 4.3 mm
18:54 4.2 °C 2.8 °C 1009.4 hPa Calm   11.3 km/h 91% 4.6 mm
19:04 4.1 °C 2.9 °C 1009.7 hPa Calm   9.7 km/h 92% 4.6 mm
19:09 4.1 °C 2.9 °C 1009.7 hPa NNE 4.8 km/h 12.9 km/h 92% 4.6 mm
19:14 4.1 °C 2.9 °C 1009.7 hPa NNW 3.2 km/h 12.9 km/h 92% 4.6 mm
19:19 4.1 °C 2.9 °C 1009.7 hPa North 1.6 km/h 9.7 km/h 92% 4.6 mm
19:24 4.1 °C 2.9 °C 1010 hPa Calm   9.7 km/h 92% 4.6 mm
19:29 4.1 °C 2.9 °C 1010.4 hPa Calm   8 km/h 92% 4.8 mm
19:34 4 °C 2.8 °C 1010 hPa North 3.2 km/h 9.7 km/h 92% 4.8 mm
19:39 3.9 °C 2.8 °C 1010 hPa NE 3.2 km/h 12.9 km/h 92% 5.1 mm
19:44 3.9 °C 2.7 °C 1010 hPa NNE 6.4 km/h 16.1 km/h 92% 5.1 mm
19:49 3.8 °C 2.7 °C 1009.7 hPa North 4.8 km/h 16.1 km/h 92% 5.3 mm
19:54 3.8 °C 2.7 °C 1009.7 hPa NNE 8 km/h 16.1 km/h 92% 5.3 mm
19:59 3.8 °C 2.6 °C 1009.7 hPa NNE 1.6 km/h 16.1 km/h 92% 5.3 mm
20:04 3.8 °C 2.6 °C 1010 hPa North 6.4 km/h 17.7 km/h 92% 5.6 mm
20:09 3.7 °C 2.6 °C 1010 hPa NNE 6.4 km/h 17.7 km/h 92% 5.6 mm
20:14 3.7 °C 2.6 °C 1010 hPa NNE 3.2 km/h 17.7 km/h 92% 5.6 mm
20:19 3.6 °C 2.4 °C 1010 hPa NNE 4.8 km/h 20.9 km/h 92% 5.6 mm
20:24 3.6 °C 2.4 °C 1010.4 hPa North 3.2 km/h 20.9 km/h 92% 5.6 mm
20:29 3.5 °C 2.3 °C 1010.7 hPa NNE 3.2 km/h 16.1 km/h 92% 5.6 mm
20:34 3.5 °C 2.3 °C 1010.7 hPa NNE 1.6 km/h 14.5 km/h 92% 5.6 mm
20:39 3.5 °C 2.3 °C 1010.7 hPa NNE 3.2 km/h 14.5 km/h 92% 5.8 mm
20:44 3.3 °C 2.2 °C 1010.7 hPa NNE 4.8 km/h 12.9 km/h 92% 6.1 mm
20:49 3.3 °C 2.1 °C 1010.7 hPa NE 3.2 km/h 16.1 km/h 92% 6.1 mm
20:59 3.2 °C 2.1 °C 1010.7 hPa North 1.6 km/h 17.7 km/h 92% 6.4 mm
21:09 3.3 °C 2.1 °C 1010.4 hPa NNE 4.8 km/h 12.9 km/h 92% 6.4 mm
21:15 3.2 °C 2.1 °C 1010.4 hPa NNE 8 km/h 22.5 km/h 92% 6.6 mm
21:24 3.1 °C 1.9 °C 1010.4 hPa NNE 3.2 km/h 17.7 km/h 92% 6.6 mm
21:29 3.1 °C 1.9 °C 1010.4 hPa Calm   11.3 km/h 92% 6.6 mm
21:34 3.1 °C 1.9 °C 1010.7 hPa NNW 1.6 km/h 11.3 km/h 92% 6.6 mm
21:39 3.1 °C 1.9 °C 1010.7 hPa North 1.6 km/h 9.7 km/h 92% 6.6 mm
21:44 3.1 °C 1.9 °C 1010.7 hPa NNE 6.4 km/h 19.3 km/h 92% 6.6 mm
21:49 3.1 °C 1.9 °C 1010.7 hPa Calm   19.3 km/h 92% 6.6 mm
21:54 3.1 °C 1.9 °C 1010.4 hPa NNE 4.8 km/h 14.5 km/h 92% 6.6 mm
21:59 3.1 °C 1.9 °C 1010.4 hPa NNW 1.6 km/h 14.5 km/h 92% 6.6 mm
22:04 3 °C 1.8 °C 1010.4 hPa NNE 1.6 km/h 14.5 km/h 92% 6.6 mm
22:09 2.9 °C 1.8 °C 1010 hPa NNE 3.2 km/h 14.5 km/h 92% 6.6 mm
22:14 2.9 °C 1.7 °C 1010.4 hPa NE 1.6 km/h 12.9 km/h 92% 6.6 mm
22:19 2.8 °C 1.7 °C 1010.4 hPa Calm   9.7 km/h 92% 6.6 mm
22:24 2.8 °C 1.7 °C 1010 hPa NNE 1.6 km/h 12.9 km/h 92% 6.6 mm
22:29 2.8 °C 1.6 °C 1010 hPa NNE 1.6 km/h 12.9 km/h 92% 6.6 mm
22:35 2.8 °C 1.6 °C 1010 hPa NE 1.6 km/h 19.3 km/h 92% 6.9 mm
22:44 2.7 °C 1.7 °C 1010 hPa NNE 1.6 km/h 12.9 km/h 93% 6.9 mm
22:49 2.6 °C 1.6 °C 1010.4 hPa Calm   14.5 km/h 93% 6.9 mm
22:59 2.6 °C 1.4 °C 1010.7 hPa Calm   11.3 km/h 92% 6.9 mm
23:04 2.6 °C 1.4 °C 1011.1 hPa Calm   8 km/h 92% 6.9 mm
23:09 2.6 °C 1.4 °C 1011.1 hPa NW 1.6 km/h 8 km/h 92% 7.1 mm
23:14 2.5 °C 1.5 °C 1011.1 hPa NW 3.2 km/h 11.3 km/h 93% 7.4 mm
23:19 2.5 °C 1.5 °C 1011.1 hPa Calm   11.3 km/h 93% 7.6 mm
23:24 2.5 °C 1.5 °C 1011.1 hPa Calm   4.8 km/h 93% 7.9 mm
23:29 2.5 °C 1.5 °C 1011.1 hPa Calm   4.8 km/h 93% 8.1 mm
23:40 2.4 °C 1.4 °C 1010.7 hPa North 1.6 km/h 9.7 km/h 93% 8.4 mm
23:45 2.3 °C 1.3 °C 1010.4 hPa NNE 1.6 km/h 9.7 km/h 93% 8.6 mm
23:54 2.2 °C 1.2 °C 1010.4 hPa Calm   6.4 km/h 93% 8.9 mm
23:59 2.2 °C 1.2 °C 1010.4 hPa NNE 1.6 km/h 9.7 km/h 93% 8.9 mm
Westford Weather
Compliments of Weather Underground

 
 
Current Radar Loop:

Copyright © WestfordWeather.net 2007-2014. All rights reserved.